Flag for U.S.A. Weather past 2 weeks in Charleston, South Carolina, U.S.A.

Now
73 °F

Clear.


Feels Like: 74 °F
Forecast: 74 / 88 °F
Wind: 7 mph from North

Location: Charleston Air Force Base Reporting Station

Current Time: Jul 29, 2014 at 5:03:11 AM

Latest Report: Jul 29, 2014 at 3:56 AM


Visibility: 10 mi

Pressure: 29.84 "Hg

Humidity: 76%

Dew point: 65 °F

Location of CharlestonLocation

Historic Weather in Charleston — Graph

°F

Charleston temperature yesterday

Maximum temperature yesterday: 95 °F (at 1:56 PM)
Minimum temperature yesterday: 82 °F (at 5:56 AM)
Average temperature yesterday: 87 °F

Past Weeks' High & Low Weather Summary

 TemperatureHumidityPressure
High95 °F (Jul 28, 1:56 PM)94% (Jul 23, 5:56 AM)30.14 "Hg (Jul 23, 5:56 AM)
Low72 °F (Jul 19, 3:56 AM)43% (Jul 18, 11:56 AM)29.79 "Hg (Jul 28, 4:56 PM)
Average82 °F75%29.99 "Hg
* Reported Jul 14 3:56 AM — Jul 29 3:56 AM, Charleston, Weather by CustomWeather, © 2014

Note: Actual official high and low records may vary slightly from our data, if they occured in-between our weather recording intervals... More about our weather records

Advertising

Charleston weather history for previous 24 hours

 ConditionsComfort  
Time TempWeatherWind HumidityBarometerVisibility
3:56 AM
Jul 29
73 °FClear.7 mph76%29.84 "Hg10 mi
2:56 AM75 °FClear.7 mph76%29.83 "Hg10 mi
1:56 AM78 °FPassing clouds.7 mph74%29.83 "Hg10 mi
12:56 AM80 °FPassing clouds.9 mph74%29.83 "Hg10 mi
11:56 PM
Jul 28
83 °FPassing clouds.9 mph72%29.84 "Hg10 mi
10:56 PM85 °FPassing clouds.8 mph70%29.83 "Hg10 mi
9:56 PM85 °FPassing clouds.6 mph72%29.83 "Hg10 mi
8:56 PM86 °FScattered clouds.7 mph70%29.81 "Hg10 mi
7:56 PM88 °FPartly sunny.9 mph67%29.80 "Hg10 mi
6:56 PM90 °FScattered clouds.9 mph61%29.79 "Hg10 mi
5:56 PM89 °FBroken clouds.10 mph70%29.79 "Hg10 mi
4:56 PM94 °FScattered clouds.12 mph60%29.79 "Hg10 mi
3:59 PM95 °FThunderstorms. Broken clouds.17 mph53%29.81 "Hg10 mi
2:56 PM95 °FScattered clouds.12 mph54%29.82 "Hg10 mi
1:56 PM95 °FBroken clouds.10 mph56%29.84 "Hg10 mi
12:56 PM93 °FBroken clouds.12 mph58%29.86 "Hg10 mi
11:56 AM91 °FPartly sunny.10 mph64%29.88 "Hg10 mi
10:56 AM91 °FPartly sunny.12 mph61%29.88 "Hg10 mi
9:56 AM87 °FBroken clouds.7 mph67%29.88 "Hg10 mi
8:56 AM84 °FBroken clouds.13 mph72%29.88 "Hg10 mi
7:56 AM83 °FBroken clouds.9 mph74%29.88 "Hg10 mi
6:56 AM82 °FPassing clouds.10 mph74%29.88 "Hg10 mi
5:56 AM82 °FPassing clouds.8 mph74%29.87 "Hg10 mi
Weather by CustomWeather, © 2014

See weather overviewHow to use our weather pages